Home   Weather   Arctic Bay   Past weeks

Flag for Canada Past Weather in Arctic Bay, Nunavut, Canada — Yesterday and Last 2 Weeks

Now
-8 °F

Overcast.


Feels Like: -17 °F
Forecast: -20 / -10 °F
Wind: 3 mph from East

Location: Pond Inlet

Current Time: Dec 10, 2016 at 7:31:15 pm

Latest Report: Dec 10, 2016 at 6:00 pm


Visibility: 9 mi

Pressure: 29.83 "Hg

Humidity: 84%

Dew Point: -11 °F

Location of Arctic BayLocation

Past Weather in Arctic Bay — Graph

°F

Arctic Bay Temperature Yesterday

Maximum temperature yesterday: -8 °F (at 12:00 am)
Minimum temperature yesterday: -24 °F (at 5:00 pm)
Average temperature yesterday: -15 °F

High & Low Weather Summary for the Past Weeks

 TemperatureHumidityPressure
High18 °F (Dec 2, 11:00 am)93% (Dec 2, 6:00 am)30.36 "Hg (Dec 2, 6:00 am)
Low-29 °F (Dec 7, 4:00 am)68% (Dec 7, 1:00 am)29.57 "Hg (Dec 9, 11:00 am)
Average-3 °F84%30.08 "Hg
* Reported Nov 25 6:00 pm — Dec 10 6:00 pm, Arctic Bay, Weather by CustomWeather, © 2016

Note: Actual official high and low records may vary slightly from our data, if they occured in-between our weather recording intervals... More about our weather records

Advertising

Arctic Bay Weather History for the Previous 24 Hours

Scroll right to see more
 ConditionsComfort  
Time TempWeatherWind HumidityBarometerVisibility
6:00 pm
Sat, Dec 10
-8 °FOvercast.3 mph84%29.83 "Hg9 mi
5:00 pm-8 °FLight snow. Overcast.3 mph84%29.82 "Hg4 mi
4:55 pm-8 °FLight snow. Overcast.2 mph84%29.82 "Hg4 mi
4:00 pm-8 °FOvercast.6 mph84%29.81 "Hg15 mi
3:00 pm-8 °FMore clouds than sun.7 mph77%29.79 "Hg15 mi
2:00 pm-8 °FOvercast.6 mph84%29.77 "Hg15 mi
1:00 pm-6 °FOvercast.6 mph77%29.76 "Hg9 mi
12:00 pm-9 °FOvercast.5 mph84%29.75 "Hg9 mi
11:00 am-11 °FOvercast.2 mph84%29.74 "Hg9 mi
10:00 am-11 °FOvercast.2 mph84%29.74 "Hg9 mi
9:00 am-11 °FOvercast.3 mph84%29.73 "Hg9 mi
8:00 am-13 °FPartly sunny.3 mph76%29.74 "Hg9 mi
7:00 am-13 °FPartly sunny.No wind83%29.73 "Hg9 mi
6:00 am-11 °FScattered clouds.2 mph76%29.72 "Hg9 mi
5:00 am-15 °FPassing clouds.2 mph76%29.71 "Hg9 mi
4:00 am-13 °FPassing clouds.2 mph83%29.70 "Hg9 mi
3:00 am-18 °FPassing clouds.7 mph75%29.70 "Hg9 mi
2:00 am-18 °FClear.2 mph75%29.70 "Hg9 mi
1:00 am-17 °FPassing clouds.6 mph76%29.70 "Hg9 mi
12:00 am-17 °FBroken clouds.6 mph76%29.67 "Hg9 mi
11:00 pm
Fri, Dec 9
-18 °FClear.7 mph75%29.66 "Hg9 mi
10:00 pm-22 °FLight snow. Passing clouds.3 mph75%29.65 "Hg9 mi
9:52 pm-20 °FLight snow. Passing clouds.5 mph75%29.65 "Hg9 mi
9:00 pm-20 °FClear.8 mph75%29.65 "Hg9 mi
8:00 pm-18 °FLight snow. Passing clouds.8 mph75%29.64 "Hg9 mi
7:00 pm-18 °FLight snow. Passing clouds.8 mph75%29.63 "Hg12 mi
Weather by CustomWeather, © 2016

See weather overviewHow to use our weather pages